Regional Weather Roundup
Issued by NWS

Home | Current Version | Previous Version | Text Only | Print | Product List | Glossary On
Versions: 1 2 3 4 5 6 7 8 9 10 11 12 13 14 15 16 17 18 19 20 21 22 23 24 25 26 27 28 29 30 31 32 33 34 35 36 37 38 39 40 41 42 43 44 45 46 47 48 49 50
000
ASUS43 KLSX 240557
RWRMO

WEATHER SUMMARY FOR MISSOURI
NATIONAL WEATHER SERVICE SPRINGFIELD MO
100 AM CDT TUE OCT 24 2017

NOTE: "FAIR" INDICATES FEW OR NO CLOUDS BELOW 12,000 FEET WITH NO
       SIGNIFICANT WEATHER AND/OR OBSTRUCTIONS TO VISIBILITY.
       CURRENT SKY AND/OR WEATHER CONDITIONS ARE NOT AVAILABLE FOR
       CHILLICOTHE AND FARMINGTON.

MOZ001>031-035>038-043-044-053-054-240700-
...NORTHERN AND WESTERN MISSOURI...

CITY           SKY/WX    TMP DP  RH WIND       PRES   REMARKS
KANSAS CTY INT MOCLDY    50  34  54 NW14      30.04F
6HR MIN TEMP:  48; 6HR MAX TEMP:  60;

LEE`S SUMMIT   LGT RAIN  50  34  54 W13       30.04F
6HR MIN TEMP:  50; 6HR MAX TEMP:  62; 6HR PCP: TRACE;

ST JOSEPH      LGT RAIN  51  35  54 NW16G24   30.03F
6HR MIN TEMP:  49; 6HR MAX TEMP:  59; 6HR PCP: TRACE;

CHILLICOTHE      N/A     50  33  52 VRB7      29.97F
6HR MIN TEMP:  50; 6HR MAX TEMP:  60;


$$
MOZ066>068-077>081-088>096-101>105-240700-
...SOUTHWEST MISSOURI...

CITY           SKY/WX    TMP DP  RH WIND       PRES   REMARKS
SPRINGFIELD    CLEAR     51  34  52 NW8       30.07S
6HR MIN TEMP:  51; 6HR MAX TEMP:  62;

JOPLIN         CLEAR     51  35  54 W12       30.13F
6HR MIN TEMP:  51; 6HR MAX TEMP:  62;


$$
MOZ032>034-039>042-045>050-055>058-069>072-240700-
...CENTRAL MISSOURI...

CITY           SKY/WX    TMP DP  RH WIND       PRES   REMARKS
COLUMBIA       NOT AVBL
JEFFERSON CITY CLOUDY    53  32  44 W12       29.96F
6HR MIN TEMP:  53; 6HR MAX TEMP:  60;

ROLLA          MOCLDY    51  33  50 NW18G25   29.96R
6HR MIN TEMP:  51; 6HR MAX TEMP:  59; 6HR PCP:  0.01;

SEDALIA        MOCLDY    50  36  58 W10       30.01F
6HR MIN TEMP:  50; 6HR MAX TEMP:  59; 6HR PCP: TRACE;

WARRENSBURG    PTCLDY    48  32  53 SW7       30.02F

$$
MOZ051-052-059>065-240700-
...EAST CENTRAL MISSOURI...

CITY           SKY/WX    TMP DP  RH WIND       PRES   REMARKS
ST LOUIS INTL  CLOUDY    54  39  57 W16G24    29.84F
6HR MIN TEMP:  54; 6HR MAX TEMP:  61; 6HR PCP: TRACE;


$$
MOZ072>076-082>087-097>100-106>115-240700-
...SOUTH CENTRAL AND SOUTHEAST MISSOURI...

CITY           SKY/WX    TMP DP  RH WIND       PRES   REMARKS
CAPE GIRARDEAU CLEAR     50  42  74 W7        29.88R
6HR MIN TEMP:  50; 6HR MAX TEMP:  64;

POPLAR BLUFF   CLEAR     57  39  51 W7        29.91F
6HR MIN TEMP:  57; 6HR MAX TEMP:  68;

WEST PLAINS    CLEAR     54  34  46 W8        30.00S
6HR MIN TEMP:  53; 6HR MAX TEMP:  60;


$$



USA.gov is the U.S. government's official web portal to all federal, state and local government web resources and services.